Regional Weather Roundup
Issued by NWS Charleston, SC

Current Version | Previous Version | Text Only | Print | Product List | Glossary Off
Versions: 1 2 3 4 5 6 7 8 9 10 11 12 13 14 15 16 17 18 19 20 21 22 23 24 25 26 27 28 29 30 31 32 33 34 35 36 37 38 39 40 41 42 43 44 45 46 47 48 49 50

000
ASUS42 KCHS 270511
RWRCHS

REGIONAL WEATHER ROUNDUP
NATIONAL WEATHER SERVICE CHARLESTON SC
1200 AM EST MON FEB 27 2017

NOTE: "FAIR" INDICATES FEW OR NO CLOUDS BELOW 12,000 FEET WITH NO
SIGNIFICANT WEATHER AND/OR OBSTRUCTIONS TO VISIBILITY.

NOT ALL STATIONS ARE QUALITY CONTROLLED. USE DATA WITH CAUTION...
ESPECIALLY DEWPOINT OBSERVATIONS.

SCZ027-030-031-034>040-042>050-270600-
...SOUTHEAST SOUTH CAROLINA...

CITY           SKY/WX    TMP DP  RH WIND       PRES   REMARKS
N CHARLESTON   CLEAR     45  39  79 CALM      30.32R
WATERFRONT PRK   N/A     57  48  72 VRB2      30.30S
MOUNT PLEASANT RAIN      43  39  87 CALM      30.32R
JOHNS ISLAND   FAIR      43  39  87 CALM      30.32R
PINOPOLIS        N/A     50  43  76 VRB2      30.24R
MONCKS CORNER  FAIR      39  36  87 CALM      30.32R
SUMMERVILLE    FAIR      41  36  81 CALM      30.33R
BEAUFORT MCAS  CLEAR     47  45  93 CALM      30.31R
BEAUFORT ARPT  FAIR      50  46  87 CALM      30.30S
HILTON HEAD IS CLEAR     46  41  81 CALM      30.31S
WALTERBORO     CLEAR     41  36  81 CALM      30.32S
ALLENDALE      FAIR      43  34  70 CALM      30.30R

...SOUTHERN MIDLANDS AND PEE DEE...

CITY           SKY/WX    TMP DP  RH WIND       PRES   REMARKS
GEORGETOWN     FAIR      37  36  93 CALM      30.34R
KINGSTREE      FAIR      36  32  87 CALM      30.32S
ORANGEBURG     CLEAR     41  33  73 CALM      30.31R
BARNWELL       FAIR      41  32  70 CALM      30.30R
AIKEN          FAIR      37  28  70 CALM      30.32S
MANNING        FAIR      36  21  55 MISG      30.32S HAZE
COLUMBIA       CLEAR     40  32  73 CALM      30.29F
SUMTER         CLEAR     39  29  66 CALM      30.29S
FLORENCE       CLEAR     39  31  72 CALM      30.32S
MYRTLE BEACH   CLEAR     43  38  82 CALM      30.34R
N MYRTLE BEACH CLEAR     40  39  97 CALM      30.33R

$$

GAZ063-065-086>088-099>101-113>116-118-119-134>141-150-270600-
...SOUTHEAST GEORGIA...

CITY           SKY/WX    TMP DP  RH WIND       PRES   REMARKS
SAVANNAH ARPT  CLEAR     46  40  79 CALM      30.31R
HUNTER AAF     CLEAR     46  42  89 CALM      30.28R
FORT STEWART   CLEAR     43  39  88 CALM      30.27S
STATESBORO     CLEAR     40  40 100 CALM      30.30S
SYLVANIA       CLEAR    N/A N/A N/A CALM      30.31R
CLAXTON        FAIR     N/A N/A N/A CALM      30.30S

...CSRA...CENTRAL AND FAR SOUTHEAST GEORGIA...

CITY           SKY/WX    TMP DP  RH WIND       PRES   REMARKS
THOMSON        CLEAR     40  37  86 CALM      30.32S
AUGUSTA-BUSH   CLEAR     41  32  70 CALM      30.29R
AUGUSTA-DANIEL CLEAR     51  25  36 E5        30.29R
SWAINSBORO     FAIR      43  36  75 CALM      30.29S
VIDALIA        CLEAR     46  37  71 CALM      30.28F
EASTMAN        FAIR      40  30  67 CALM      30.29F
HAZLEHURST     FAIR      53  37  56 SE6       30.27S
ALMA           CLEAR     41  39  93 CALM      30.28S
WAYCROSS       CLEAR     47  45  91 CALM      30.28S
JESUP          FAIR      41  37  87 CALM      30.29S
BAXLEY         FAIR      45  43  93 CALM      30.28S
BRUNSWICK      CLEAR     45  45 100 CALM      30.29S
SAINT SIMONS   CLEAR     59  38  45 E7        30.28R

$$

SCZ027-028-034-036>038-045-046-048>050-GAZ119-141-270600-
...LAKE AND SUPPLEMENTAL COASTAL OBSERVATIONS...

STATION/POSITION TIME  TEMP    WIND        PRES    WAVE   SWELL
                       AIR SEA DIR/SP/G            HT/PER HT/PER/DIR
                 (UTC) (F)     (DEG/KT/KT) (MB)    (FT/S) (FT/S/D)
WINYAH BAY       0345   44     310/  2     1026.0
LAKE MURRAY      0420   49      CALM  /  1 1025.1S
ACE BASIN NERRS  NOT AVBL
FORT PULASKI     0448   57 63   CALM  /  1 1026.0R
SAPELO ISLAND    0400   50     110/  3     1025.0

$$

ANZ835-935-AMZ111-154-330-350-352-354-370-450-454-472-270600-
...C-MAN AND BUOY OBSERVATIONS...

STATION/POSITION TIME  TEMP    WIND        PRES    WAVE   SWELL
                       AIR SEA DIR/SP/G            HT/PER HT/PER/DIR
                 (UTC) (F)     (DEG/KT/KT) (MB)    (FT/S) (FT/S/D)
BUOY 41004       0450   60 69   90/  6/ 10 1026.2R   3/ 9   3/120/ 9
BUOY 41008       0450   62 62  100/ 10/ 12 1025.5R   2/10   2/ 90/10
FOLLY BEACH CMAN 0400   59     110/  7/  8 1026.7R
CAPERS NEARSHORE 0408   58 60  150/  6/  8 1026.3R
FRIPP NEARSHORE  0408   60 61  150/  6/  8 1025.7R


STATION/POSITION TIME  TEMP    WIND        PRES    WAVE   SWELL
                       AIR SEA DIR/SP/G            HT/PER HT/PER/DIR
                 (UTC) (F)     (DEG/KT/KT) (MB)    (FT/S) (FT/S/D)
5E ST. MARYS GA  0430      64                N/A     2/ 9   2/100/11
FRYING PAN BUOY  0450   59 69  360/  6/ 10 1027.0R   3/10   3/110/10
BUOY 41025       0450   56 72  340/  6/ 10 1027.3R   4/ 8   3/140/ 8
CAPE LOOKOUT NC  0400   55     350/  8/  9 1026.5R
BUOY 41002       0450   64 71   10/ 10/ 14 1025.9R   5/ 7   5/300/ 7
BUOY 41010       NOT AVBL
ST AUGUSTINE FL  0500   65 65   60/ 12/ 13 1025.2F


$$




USA.gov is the U.S. government's official web portal to all federal, state and local government web resources and services.